Location: PSU-Greenbush Astrophysical Observatory
(37.5140°N, 94.9880°W)
Time: 14:37:32
(UTC-06:00)

deb Explorer IX - Pass Details

Date: 30 January 2020
Orbit: 549 x 1099 km, 38.8° (Epoch: 18 February)

Event Time Altitude Azimuth Distance (km) Brightness Sun altitude
Rises 21:48:09 0° 270° (W) 3,604 ? -48.8°
Reaches altitude 10° 21:50:40 10° 271° (W) 2,729 ? -49.2°
Enters shadow 21:51:06 12° 271° (W) 2,578 ? -49.3°
Maximum altitude 21:57:25 80° 358° (N) 1,073 - -50.5°
Drops below altitude 10° 22:04:44 10° 87° (E) 2,945 - -51.9°
Sets 22:07:32 0° 88° (E) 3,904 - -52.4°
